Regional Weather Roundup
Issued by NWS

Home | Current Version | Previous Version | Graphics & Text | Print | Product List | Glossary On
Versions: 1 2 3 4 5 6 7 8 9 10 11 12 13 14 15 16 17 18 19 20 21 22 23 24 25 26 27 28 29 30 31 32 33 34 35 36 37 38 39 40 41 42 43 44 45 46 47 48 49 50
000
ASUS43 KFSD 110402
RWRSD

WEATHER ROUNDUP FOR SOUTH DAKOTA
NATIONAL WEATHER SERVICE SIOUX FALLS SD
1000 PM CST SAT DEC 10 2016

NOTE: "FAIR" INDICATES FEW OR NO CLOUDS BELOW 12,000 FEET WITH NO
SIGNIFICANT WEATHER AND/OR OBSTRUCTIONS TO VISIBILITY.


SDZ001>005-009-010-012>017-110500-
NORTHWEST AND NORTH CENTRAL SOUTH DAKOTA

CITY           SKY/WX    TMP DP  RH WIND       PRES   REMARKS
BUFFALO          N/A      3  -1  83 S7        29.71F WCI  -9
FAITH            N/A      2  -1  88 NE8       29.82R WCI -12
MOBRIDGE       LGT SNOW   6   0  76 E10       29.89F VSB 1   WCI  -9
$$

SDZ012>016-024>037-041>051-057-063-072>074-110500-
SOUTHWEST AND SOUTH CENTRAL SOUTH DAKOTA

CITY           SKY/WX    TMP DP  RH WIND       PRES   REMARKS
RAPID CTY ARPT LGT SNOW   6   1  80 N9        29.76F WCI  -8
PIERRE         CLOUDY    12   8  84 E17       29.83S WCI  -5
CUSTER         CLOUDY    33  26  75 W10       29.59R WCI  25
ELLSWORTH AFB  FLURRIES   5   2  86 N6        29.75  WCI  -6
PHILIP         CLOUDY     8   6  92 N9        29.81S FOG     WCI  -5
PINE RIDGE     CLOUDY     8   6  92 N7        29.69R WCI  -3
SPEARFISH      LGT SNOW   7   1  78 CALM      29.69F
WINNER         CLOUDY    23  19  85 E14       29.75F WCI  11
$$

SDZ004>011-016>023-039-040-110500-
NORTHEAST SOUTH DAKOTA

CITY           SKY/WX    TMP DP  RH WIND       PRES   REMARKS
ABERDEEN       LGT SNOW   8   1  73 E15       29.98F WCI  -9
WATERTOWN      LGT SNOW   7   3  84 E15G22    29.95F VSB 1   WCI -10
BROOKINGS      LGT SNOW  10   7  85 E15       29.96F FOG     WCI  -6
SISSETON         N/A      7   3  84 E5        30.08F WCI  -2
$$

SDZ017-020-022-023-036>040-048>070-110500-
SOUTHEAST SOUTH DAKOTA

CITY           SKY/WX    TMP DP  RH WIND       PRES   REMARKS
SIOUX FALLS    LGT SNOW  20  18  92 E13       29.95F FOG     WCI   7
HURON          LGT SNOW  15  12  88 SE16G23   29.91F FOG     WCI  -1
CHAMBERLAIN    CLOUDY    22  20  93 E13       29.81F WCI  10
MITCHELL       CLOUDY    21  18  88 SE18      29.90F WCI   6
YANKTON        CLOUDY    23  18  80 E12       29.89F WCI  12
$$

ABBREVIATIONS USED IN REMARKS
   TC - TEMPERATURE IN CELSIUS
  WCI - WIND CHILL INDEX
   HX - HEAT INDEX
  VSB - VISIBILITY





USA.gov is the U.S. government's official web portal to all federal, state and local government web resources and services.